Location: *
(39.6167°S, 171.5333°W)
Time: 19:37:09
(UTC+00:00)

Cosmos 839 Rocket - Pass Details

Date: 13 May 2021
Orbit: 958 x 2095 km, 65.9° (Epoch: 19 June)

Event Time Altitude Azimuth Distance (km) Brightness Sun altitude
Rises 17:03:42 0° 332° (NNW) 3,893 7.0 -15.2°
Reaches altitude 10° 17:06:26 10° 331° (NNW) 2,847 6.3 -14.7°
Maximum altitude 17:12:53 89° 241° (WSW) 981 4.0 -13.5°
Drops below altitude 10° 17:19:05 10° 150° (SSE) 2,737 6.6 -12.4°
Sets 17:21:40 0° 149° (SSE) 3,733 7.3 -11.9°
